GW7259 Weather Reports


time (UTC)temp
F
wind
direction
speed
knots
gust
knots
rain 1hr
in
rain 24hr
in
rain mn
in
humidity
%
barometer
mb
20260502162015 76 192 1.7 1.7 0.00 0.00 0.00 14 1023.2
20260502160512 76 156 0.0 0.0 0.00 0.00 0.00 16 1023.5
20260502152004 73 158 0.0 0.0 0.00 0.00 0.00 17 1022.8
20260502150501 72 215 0.0 0.0 0.00 0.00 0.00 16 1023.2
20260502130433 61 313 0.0 0.0 0.00 0.00 0.00 19 1022.0
20260502123428 64 296 0.0 0.0 0.00 0.00 0.00 18 1021.7
20260502121925 65 294 0.0 0.0 0.00 0.00 0.00 17 1021.7
20260502120421 66 344 0.0 0.0 0.00 0.00 0.00 16 1021.7
20260502114917 67 197 0.0 0.0 0.00 0.00 0.00 16 1021.4
20260502113415 69 254 0.0 0.0 0.00 0.00 0.00 15 1021.7
20260502111914 70 144 0.0 0.0 0.00 0.00 0.00 15 1021.4
20260502110411 70 204 0.0 0.0 0.00 0.00 0.00 14 1021.4
20260502104909 70 258 0.0 0.0 0.00 0.00 0.00 14 1021.4
20260502103407 69 156 0.0 0.0 0.00 0.00 0.00 15 1021.4
20260502101903 69 156 0.0 0.0 0.00 0.00 0.00 14 1021.4
20260502100359 71 132 0.0 0.0 0.00 0.00 0.00 13 1021.0
20260502090349 71 198 0.0 0.0 0.00 0.00 0.00 13 1021.4
20260502070338 72 198 0.0 0.0 0.00 0.00 0.00 12 1021.4
20260502064838 73 204 0.0 0.0 0.00 0.00 0.00 12 1021.0
20260502063336 73 180 0.0 0.0 0.00 0.00 0.00 12 1021.0
20260502061836 73 192 0.0 0.0 0.00 0.00 0.00 11 1020.6
20260502060335 74 150 0.0 0.0 0.00 0.00 0.00 11 1020.6
20260502054830 75 210 0.0 0.0 0.00 0.00 0.00 11 1020.6
20260502053328 75 196 0.0 0.0 0.00 0.00 0.00 11 1020.6
20260502051827 75 156 0.0 0.0 0.00 0.00 0.00 11 1020.2
20260502050323 75 181 0.0 0.0 0.00 0.00 0.00 12 1020.6
20260502044820 76 81 0.0 0.0 0.00 0.00 0.00 12 1020.2
20260502043317 77 207 0.0 0.0 0.00 0.00 0.00 11 1019.9
20260502041817 77 226 0.0 0.0 0.00 0.00 0.00 11 1019.9
20260502040314 77 246 0.0 0.0 0.00 0.00 0.00 11 1019.6
20260502034810 78 216 0.0 0.0 0.00 0.00 0.00 11 1019.6
20260502033309 78 241 0.0 0.0 0.00 0.00 0.00 11 1018.8
20260502031806 79 216 0.0 0.0 0.00 0.00 0.00 11 1018.4
20260502030306 80 210 0.0 0.0 0.00 0.00 0.00 10 1018.8
20260502024804 80 204 0.0 0.0 0.00 0.00 0.00 10 1018.4
20260502023303 81 229 0.0 0.0 0.00 0.00 0.00 10 1018.4
20260502021759 82 193 0.0 0.0 0.00 0.00 0.00 10 1018.1
20260502020257 83 192 0.0 0.0 0.00 0.00 0.00 10 1018.1
20260502014754 84 215 0.0 0.0 0.00 0.00 0.00 10 1018.1
20260502013254 84 167 0.9 0.9 0.00 0.00 0.00 9 1017.8
20260502011752 85 66 1.7 1.7 0.00 0.00 0.00 9 1017.8
20260502010247 84 107 2.6 3.5 0.00 0.00 0.00 9 1017.8
20260502004745 85 107 0.0 0.0 0.00 0.00 0.00 10 1018.1
20260502003242 84 185 0.0 0.0 0.00 0.00 0.00 9 1017.8
20260502001738 85 90 0.0 0.0 0.00 0.00 0.00 9 1017.8
20260502000238 86 75 3.5 3.5 0.00 0.00 0.00 9 1018.1
20260501234736 85 83 0.0 0.0 0.00 0.00 0.00 10 1018.1
20260501233235 87 134 0.0 0.0 0.00 0.00 0.00 9 1018.4
20260501231730 84 88 0.0 0.0 0.00 0.00 0.00 11 1018.1
20260501230225 85 77 1.7 1.7 0.00 0.00 0.00 11 1018.1
20260501224721 84 117 0.0 0.0 0.00 0.00 0.00 12 1018.4
20260501223217 85 69 3.5 3.5 0.00 0.00 0.00 11 1018.8
20260501221713 85 96 1.7 1.7 0.00 0.00 0.00 11 1019.1
20260501220211 84 78 1.7 1.7 0.00 0.00 0.00 11 1019.1
20260501214710 85 78 0.0 0.0 0.00 0.00 0.00 11 1019.1
20260501213205 83 174 0.0 0.0 0.00 0.00 0.00 12 1019.1
20260501211701 84 137 1.7 1.7 0.00 0.00 0.00 12 1019.9
20260501210157 84 76 0.0 0.0 0.00 0.00 0.00 11 1019.9
20260501204654 82 239 0.0 0.0 0.00 0.00 0.00 12 1020.2
20260501203150 82 222 0.0 0.0 0.00 0.00 0.00 13 1019.9
20260501201646 83 282 0.0 0.0 0.00 0.00 0.00 12 1020.2
20260501200143 82 198 0.0 0.0 0.00 0.00 0.00 12 1020.2
20260501194642 80 239 0.0 0.0 0.00 0.00 0.00 13 1020.6
20260501193140 82 308 0.0 0.0 0.00 0.00 0.00 12 1020.6
20260501191637 81 81 0.0 0.0 0.00 0.00 0.00 13 1021.0
20260501190137 80 249 0.0 0.0 0.00 0.00 0.00 14 1021.0
20260501184632 81 305 0.0 0.0 0.00 0.00 0.00 14 1021.4
20260501183132 79 235 0.0 0.0 0.00 0.00 0.00 14 1021.4
20260501181628 82 106 0.0 0.0 0.00 0.00 0.00 13 1021.7
20260501180125 80 234 0.0 0.0 0.00 0.00 0.00 14 1021.4
20260501174621 79 275 0.0 0.0 0.00 0.00 0.00 14 1021.7
20260501173119 79 198 0.0 0.0 0.00 0.00 0.00 14 1021.7
20260501171618 78 204 0.9 0.9 0.00 0.00 0.00 15 1021.7
20260501170115 77 282 0.0 0.0 0.00 0.00 0.00 15 1021.7
20260501164613 77 180 0.0 0.0 0.00 0.00 0.00 15 1021.7